Regional Weather Roundup
Issued by NWS Sterling, VA

Home | Current Version | Previous Version | Text Only | Print | Product List | Glossary Off
Versions: 1 2 3 4 5 6 7 8 9 10 11 12 13 14 15 16 17 18 19 20 21 22 23 24 25 26 27 28 29 30 31 32 33 34 35 36 37 38 39 40 41 42 43 44 45 46 47 48 49 50

000
ASUS41 KLWX 210410
RWRLWX

REGIONAL WEATHER ROUNDUP
NATIONAL WEATHER SERVICE BALTIMORE MD/WASHINGTON DC
1200 AM EDT THU AUG 21 2014

Note: "FAIR" indicates few or no clouds below 12,000 feet
with no significant weather and/or obstructions to visibility.
 TC=TEMPERATURE CELSIUS

 * =Non NWS site. Station does not report precipitation (e.g. rain,
    snow, etc.), thunder, or fog.

DCZ001-MDZ009-015-VAZ040>042-051-053>054-210500-
WASHINGTON METRO
  /KDAA//-FT BELVOIR

CITY           SKY/WX    TMP DP  RH WIND       PRES   REMARKS
WASHINGTON NAT PTCLDY    73  66  78 CALM      30.03R
DULLES         PTCLDY    66  65  96 E3        30.03R
ANDREWS AFB    CLEAR     67  67  99 SE3       30.03R
QUANTICO       CLEAR     71  67  87 CALM      30.03R
COLLEGE PARK*  CLEAR     68  68 100 CALM      30.02S
LEESBURG*      CLEAR     66  66 100 CALM      30.04R
MANASSAS*      PTCLDY    68  68 100 SE3       30.02S
GAITHERSBURG*  PTCLDY    66  64  94 CALM      30.08R

$$

MDZ006>007-011-014-210500-
BALTIMORE METRO

CITY           SKY/WX    TMP DP  RH WIND       PRES   REMARKS
BWI AIRPORT    PTCLDY    71  64  78 CALM      30.02S
MD SCIENCE CTR   N/A     75  65  70 MISG      30.02S
MARTIN STATE   PTCLDY    75  68  78 E8        30.03S
ANNAPOLIS      PTCLDY    74  64  71 S7        30.02S HAZE
FORT MEADE*    PTCLDY    64  63  94 CALM      30.05R

$$

MDZ012-015-019>023-210500-
MARYLAND EASTERN SHORE

CITY           SKY/WX    TMP DP  RH WIND       PRES   REMARKS
OCEAN CITY     CLOUDY    74  66  76 VRB6      30.03S
SALISBURY      MOCLDY    71  65  81 N3        30.05R
BAY BRIDGE AP*   N/A     73  63  68 SE5       30.03R
CAMBRIDGE*     MOCLDY    72  64  78 SE5       30.03S
EASTON*        MOCLDY    72  66  80 SE3       30.07S

$$

MDZ017>025-210500-
SOUTHERN MARYLAND

CITY           SKY/WX    TMP DP  RH WIND       PRES   REMARKS
PATUXENT RIVER NOT AVBL
ST INIGOES     CLOUDY    75  67  76 NE3       30.02R
LEONARDTOWN*   CLOUDY    70  64  83 CALM      30.05R

$$

MDZ003>005-210500-
NORTH CENTRAL MARYLAND

CITY           SKY/WX    TMP DP  RH WIND       PRES   REMARKS
FREDERICK*     PTCLDY   N/A N/A N/A CALM      30.06R
HAGERSTOWN APT MOCLDY    69  65  86 E3        30.03R
WESTMINSTER*   PTCLDY    68  64  88 SE3       30.04S

$$

MDZ501>502-210500-
WESTERN MARYLAND

CITY           SKY/WX    TMP DP  RH WIND       PRES   REMARKS
OAKLAND*       PTCLDY    64 N/A N/A SW3       30.12R
CUMBERLAND*    PTCLDY    72  68  88 NE3       30.05S

$$

VAZ025>031-210500-
SHENANDOAH VALLEY

CITY           SKY/WX    TMP DP  RH WIND       PRES   REMARKS
WINCHESTER*    MOCLDY    68  68 100 CALM      30.02S FOG
STAUNTON*      FOG       66  64  93 CALM      30.08S VSB 1

$$

WVZ021-048>050-054>055-210500-
EASTERN WEST VIRGINIA PANHANDLE

CITY           SKY/WX    TMP DP  RH WIND       PRES   REMARKS
MARTINSBURG    MOCLDY    69  65  86 CALM      30.03R
PETERSBURG*    NOT AVBL

$$

VAZ036>039-050-210500-
CENTRAL FOOTHILLS

CITY           SKY/WX    TMP DP  RH WIND       PRES   REMARKS
CHARLOTTESVILL FOG       68  67  96 VRB3      30.05R VSB 3/4
ORANGE*        MOCLDY    68  66  94 CALM      30.03F

$$

VAZ055>057-210500-
NORTH AND CENTRAL PIEDMONT

CITY           SKY/WX    TMP DP  RH WIND       PRES   REMARKS
FREDERICKSBRG* PTCLDY    70  70 100 CALM      30.02S
STAFFORD*      CLEAR     67  67 100 CALM      30.07S FOG

$$

NCZ024-NYZ072-PAZ021-071-VAZ022-071-210500-
OTHER REGIONAL OBSERVATIONS

CITY           SKY/WX    TMP DP  RH WIND       PRES   REMARKS
NEW YORK CITY  CLOUDY    73  58  59 CALM      30.05R
PHILADELPHIA   CLOUDY    73  63  70 S5        30.04R
PITTSBURGH     PTCLDY    67  66  97 CALM      30.01S
ROANOKE        PTCLDY    74  66  76 CALM      30.07R
RICHMOND       CLOUDY    75  69  81 S5        30.02S
RALEIGH        MOCLDY    73  69  87 CALM      30.03S

$$

ANZ530>537-210500-
MARINE OBSERVATIONS

STATION/POSITION TIME  TEMP    WIND        PRES
                       AIR SEA DIR/SP/G
                 (UTC) (F)     (DEG/KT/KT) (MB)
THOMAS PT LIGHT  0400   76 78  150/ 12/ 12 1017.2R
BALT KEY BRIDGE  0400   75     180/  4/  4 1016.4R
COVE POINT       0400   75     170/ 12/ 14 1016.7R
LEWISETTA        0400   74 79  180/  6/  8 1016.2F
SOLOMONS ISLAND  0400      80                N/A
PINEY POINT      0400          180/  9/ 11   N/A

$$




USA.gov is the U.S. government's official web portal to all federal, state and local government web resources and services.